User: anonymous   Login
Location: Unspecified
(0.0000°N, 0.0000°E)
Time: 05:48:17
(UTC+00:00)
Language:

INTELSAT 21 - Orbit

View from above orbital plane
View from above orbital plane
View from above satellite
View from above satellite

Ground track
Ground track

The orbit is defined by the following mean orbital elements,

1 38749U          26145.42969339 +.00000000 +00000-0 +00000-0 0 00007
2 38749   0.0175 338.1781 0001965  93.4579 268.0711  1.00271812    02
Epoch (UTC): 25 May 2026 10:18:45
Eccentricity: 0.0001965
inclination: 0.0175°
perigee height: 35778 km
apogee height: 35795 km
right ascension of ascending node: 338.1781°
argument of perigee: 93.4579°
revolutions per day: 1.00271812
mean anomaly at epoch: 268.0711°

The dashed part of the orbit path shows where the satellite is in the earth's shadow,  

DLR